Regional Weather Roundup
Issued by NWS

Home | Current Version | Previous Version | Graphics & Text | Print | Product List | Glossary On
Versions: 1 2 3 4 5 6 7 8 9 10 11 12 13 14 15 16 17 18 19 20 21 22 23 24 25 26 27 28 29 30 31 32 33 34 35 36 37 38 39 40 41 42 43 44 45 46 47 48 49 50
071
ASUS44 KJAN 201110
RWRMS

MISSISSIPPI HOURLY WEATHER ROUNDUP
NATIONAL WEATHER SERVICE JACKSON MS
500 AM CST SAT DEC 20 2014

NOTE: "FAIR: INDICATES FEW OR NO CLOUDS BELOW 12,000 FEET WITH NO
SIGNIFICANT WEATHER AND/OR OBSTRUCTIONS TO VISIBILITY.

MSZ001>002-007>008-010>013-018>021-025>028-034>036-201200-
NORTHWEST MISSISSIPPI

CITY           SKY/WX    TMP DP  RH WIND       PRES   REMARKS
CLARKSDALE     FAIR      34  34 100 N5        30.24R WCI  30
CLEVELAND      FAIR      37  37  98 NE7       30.22R WCI  32
GREENWOOD      PTCLDY    38  36  92 CALM      30.20S
GREENVILLE     CLEAR     38  36  92 N6        30.20R FOG     WCI  33
GRENADA        FAIR      36  34  93 CALM      30.21R
OLIVE BRANCH   CLOUDY    32  32 100 CALM      30.23S
OXFORD         FAIR      32  30  93 N3        30.23R FOG
TUNICA         PTSUNNY   36  34  93 NE6       30.25R WCI  31
$$

MSZ003>006-009-014>017-022>024-029>033-037>039-201200-
NORTHEAST MISSISSIPPI

CITY           SKY/WX    TMP DP  RH WIND       PRES   REMARKS
COLUMBUS AFB   CLEAR     37  35  90 N5        30.20R WCI  34
CORINTH        FAIR      36  32  87 CALM      30.22R
GOLDN TRIANGLE CLEAR     36  34  93 N7        30.18F WCI  30
STARKVILLE     FAIR      37  36  93 CALM      30.19S FOG
TUPELO         CLEAR     34  31  88 NE7       30.21S WCI  28
$$

MSZ040-058-201200-
CENTRAL MISSISSIPPI

CITY           SKY/WX    TMP DP  RH WIND       PRES   REMARKS
JACKSON INTL   CLOUDY    44  41  89 NE7       30.17R
JACKSON HAWKNS CLOUDY    44  41  89 NE6       30.17S
MERIDIAN KEY   CLOUDY    43  40  89 N10       30.16R
MERIDIAN NAS   CLOUDY    42  39  89 N8        30.17S
RAYMOND        CLOUDY    45  39  81 NE3       30.18R
VICKSBURG      CLOUDY    45  42  89 NE7       30.18S
$$

MSZ059>079-201200-
SOUTH MISSISSIPPI

CITY           SKY/WX    TMP DP  RH WIND       PRES   REMARKS
HATTIESBURG    CLOUDY    46  44  93 N7        30.15R
MCCOMB         CLOUDY    46  43  89 N7        30.12S
NATCHEZ        CLOUDY    45  43  93 N7        30.15S
PINE BELT      CLOUDY    45  41  87 NE7       30.14F
$$

MSZ080>082-201200-
COASTAL MISSISSIPPI

CITY           SKY/WX    TMP DP  RH WIND       PRES   REMARKS
BILOXI         LGT RAIN  47  47 100 NE12G18   30.09R
PASCAGOULA     LGT RAIN  48  46  93 N10       30.09R FOG
GULFPORT       CLOUDY    47  46  97 N12       30.09R
$$



USA.gov is the U.S. government's official web portal to all federal, state and local government web resources and services.